Regional Weather Roundup
Issued by NWS Albany, NY

Home | Current Version | Previous Version | Text Only | Print | Product List | Glossary On
Versions: 1 2 3 4 5 6 7 8 9 10 11 12 13 14 15 16 17 18 19 20 21 22 23 24 25 26 27 28 29 30 31 32 33 34 35 36 37 38 39 40 41 42 43 44 45 46 47 48 49 50
000
ASUS41 KALY 250510
RWRALY

NEW YORK STATE HOURLY WEATHER ROUNDUP
NATIONAL WEATHER SERVICE ALBANY NY
1200 AM EST SAT FEB 25 2017

NOTE: "FAIR" INDICATES FEW OR NO CLOUDS BELOW 12,000 FEET WITH NO
SIGNIFICANT WEATHER AND/OR NO OBSTRUCTIONS TO VISIBILITY.

NYZ032-033-038>043-046>054-057>066-NYZ062>081-082-084-250600-
EAST


CITY           SKY/WX    TMP DP  RH WIND       PRES   REMARKS
ALBANY         PTCLDY    59  51  75 S13       29.76F
GLENS FALLS    FOG       35  33  92 CALM      29.77F VSB 1/4
POUGHKEEPSIE   MOCLDY    60  55  83 S7        29.81F
MONTGOMERY     CLOUDY    61  55  81 S6        29.80F
WHITE PLAINS   FOG       55  54  96 S6        29.85F VSB 1/4
ISLIP          FOG       53  53 100 SW8       29.87F VSB 1/2
NEW YORK CITY  CLOUDY    55  52  89 S5        29.85F
CENTRAL PARK   MOCLDY    60  56  86 VRB3      29.87F
$$

NYZ005>009-017-018-044>046-055-056-250600-
CENTRAL


CITY           SKY/WX    TMP DP  RH WIND       PRES   REMARKS
FULTON         PTCLDY    66  51  58 S16G22    29.60F
SYRACUSE       CLOUDY    63  51  65 S21G29    29.60F
ROME           PTCLDY    60  50  69 SE9       29.68F
ELMIRA         PTCLDY    62  50  64 CALM      29.68S
BINGHAMTON     CLOUDY    58  49  72 S10G21    29.72S
MONTICELLO     PTCLDY    55  52  88 S6        29.83S
$$

NYZ026>034-041>043-087-250600-
NORTH


CITY           SKY/WX    TMP DP  RH WIND       PRES   REMARKS
WATERTOWN      CLOUDY    38  38 100 NE8       29.61F FOG     WCI  32
FORT DRUM      NOT AVBL
OGDENSBURG     CLOUDY    35  35  98 NE9       29.67R FOG     WCI  28
MASSENA        CLOUDY    34  33  96 E15       29.71F FOG     WCI  24
SARANAC LAKE   CLOUDY    33  33 100 CALM      29.68F
PLATTSBURGH    FOG       35  35 100 N6        29.77F VSB 3/4 WCI  30
$$

NYZ001>004-010>016-019>021-085-250600-
WEST


CITY           SKY/WX    TMP DP  RH WIND       PRES   REMARKS
NIAGARA FALLS  CLOUDY    45  41  86 NW9       29.55R
BUFFALO        CLOUDY    65  49  56 S16G24    29.51F
DUNKIRK        CLOUDY    66  50  56 S20G35    29.50F
JAMESTOWN        N/A     61  46  59 S10G18    29.57F
WELLSVILLE     CLOUDY    62  48  60 S10G21    29.66S
ROCHESTER      CLOUDY    44  41  89 CALM      29.56F
PENN YAN       CLEAR     63  49  60 S13       29.64F
$$

             KEY
       WCI = WIND CHILL INDEX
       VSB = VISIBILITY
       HX  = HEAT INDEX
$$



USA.gov is the U.S. government's official web portal to all federal, state and local government web resources and services.